Location: Unspecified
(35.7250°N, 0.0000°E)
Time: 23:17:21
(UTC+00:00)

Vanguard 1 Rocket - Pass Details

Date: 24 June 2019
Orbit: 650 x 4226 km, 34.3° (Epoch: 12 October)

Event Time Altitude Azimuth Distance (km) Brightness Sun altitude
Rises 22:33:08 0° 281° (W) 4,704 11.5 -27.2°
Reaches altitude 10° 22:37:24 10° 270° (W) 3,174 10.4 -27.5°
Enters shadow 22:41:37 23° 239° (WSW) 1,916 8.9 -27.9°
Maximum altitude 22:43:02 25° 218° (SW) 1,704 - -28.0°
Drops below altitude 10° 22:47:04 10° 162° (SSE) 2,202 - -28.2°
Sets 22:49:28 0° 147° (SSE) 2,995 - -28.4°
